This is the latest recevied weather packets stored in our database for station/object JF2ZGN-13. If no packets are shown the sender has not sent any weather packets the latest 10 day(s).
| Time | Temp. | Humidity | Pressure | Rain* | Wind** | Luminosity | Snow |
|---|---|---|---|---|---|---|---|
| 1777901758 | 9.44° C | 36% | 899.8 hPa | 20.07 mm | - | - | - |
| 1777901158 | 9.44° C | 32% | 899.6 hPa | 20.07 mm | - | - | - |
| 1777900557 | 9.44° C | 32% | 899.4 hPa | 20.07 mm | - | - | - |
| 1777899957 | 9.44° C | 32% | 898.8 hPa | 20.07 mm | - | - | - |
| 1777899356 | 9.44° C | 34% | 898.7 hPa | 20.07 mm | - | - | - |
| 1777898755 | 9.44° C | 36% | 898.7 hPa | 20.07 mm | - | - | - |
| 1777898155 | 9.44° C | 34% | 898.4 hPa | 20.07 mm | - | - | - |
| 1777897554 | 9.44° C | 35% | 897.9 hPa | 20.07 mm | - | - | - |
| 1777896954 | 9.44° C | 35% | 898.3 hPa | 20.07 mm | - | - | - |
| 1777896353 | 10° C | 32% | 897.8 hPa | 20.07 mm | - | - | - |
| 1777895753 | 9.44° C | 34% | 896 hPa | 20.07 mm | - | - | - |
| 1777895153 | 9.44° C | 37% | 896.7 hPa | 20.07 mm | - | - | - |
| 1777894552 | 9.44° C | 40% | 896.8 hPa | 20.07 mm | - | - | - |
| 1777893954 | 9.44° C | 39% | 896.8 hPa | 20.07 mm | - | - | - |
| 1777893351 | 9.44° C | 42% | 896.4 hPa | 20.07 mm | - | - | - |
| 1777892750 | 9.44° C | 45% | 895.9 hPa | 20.07 mm | - | - | - |
| 1777892150 | 9.44° C | 47% | 895.4 hPa | 20.07 mm | - | - | - |
| 1777891549 | 8.89° C | 51% | 894.9 hPa | 20.07 mm | - | - | - |
| 1777890949 | 8.89° C | 55% | 894.2 hPa | 20.07 mm | - | - | - |
| 1777890350 | 8.89° C | 54% | 893.9 hPa | 20.07 mm | - | - | - |
| 1777889748 | 10° C | 43% | 893.7 hPa | 20.07 mm | - | - | - |
| 1777889148 | 10° C | 46% | 893.3 hPa | 20.07 mm | - | - | - |
| 1777888549 | 10° C | 50% | 893.2 hPa | 20.07 mm | - | - | - |
| 1777887947 | 10° C | 54% | 893.3 hPa | 20.07 mm | - | - | - |
| 1777887346 | 10° C | 49% | 892.8 hPa | 20.07 mm | - | - | - |
* Rain since midnight (hover to see other rain measurements)
** Current wind speed in m/s (hover to see current wind gust speed)